RH
14 13 13 12 9 6 12 34 58 71 74 48 29 28 25 22 22 23 25 33 42 52 57 46 31 23 17 17 18 19 25 22 18 11 8 8 8 6 4 3 2 1 1 1 1
18 18 16 14 12 10 15 46 69 74 76 80 62 42 34 29 26 28 32 38 46 54 66 58 39 23 19 19 19 25 26 20 15 9 9 9 7 5 4 2 2 1 1 1 3
18 16 16 16 12 8 7 7 11 25 42 76 87 65 66 39 32 33 37 45 52 68 80 72 48 30 21 20 22 28 25 19 13 10 11 9 6 4 3 2 2 1 1 3 25
22 21 19 17 14 11 9 9 14 36 55 79 90 87 62 54 58 42 42 48 59 74 84 86 53 34 22 23 26 29 25 20 13 12 11 8 5 4 3 2 1 1 2 7 28
24 23 21 20 19 16 14 10 13 34 65 72 81 96 84 77 68 55 49 48 54 67 85 89 52 35 24 25 31 30 24 20 13 14 10 7 4 3 3 2 2 2 7 23 33
25 26 21 21 18 15 13 10 8 6 9 37 60 93 94 92 88 90 67 56 46 79 95 78 44 32 27 27 34 30 25 20 15 15 10 7 4 3 2 2 2 3 18 32 54
28 34 30 26 19 15 13 12 10 9 8 22 72 97 99 95 95 90 80 71 94 97 97 76 41 32 29 32 36 30 25 20 16 15 9 6 4 3 2 2 2 8 26 40 51
27 35 36 35 20 16 16 14 13 10 8 21 70 96 99 95 96 98 96 96 98 98 97 71 38 31 30 38 35 30 27 20 18 13 9 5 4 3 2 2 3 16 30 36 62
23 28 37 37 27 19 17 17 15 11 9 22 61 86 100 100 94 99 96 96 98 100 97 81 66 33 34 40 35 32 27 21 19 12 8 5 4 3 2 2 5 25 31 43 42
27 35 42 41 36 22 20 19 17 13 13 24 62 96 93 95 96 98 97 97 97 100 97 94 63 38 43 40 37 34 27 23 19 12 7 4 4 2 2 2 9 27 30 44 43
35 40 48 38 32 24 23 24 22 23 38 52 72 96 97 97 97 97 97 98 97 97 97 79 46 50 46 42 37 35 28 24 20 11 6 4 4 2 2 2 13 31 34 40 67
47 48 48 53 26 24 34 32 24 26 35 68 86 96 98 97 96 93 92 95 97 97 94 76 76 55 46 44 39 37 31 26 19 11 6 4 3 3 2 2 18 26 33 35 55
58 58 82 78 31 34 40 31 32 44 36 77 89 95 98 96 97 96 92 97 97 96 95 92 89 72 52 48 42 39 33 27 17 10 5 5 3 2 2 2 23 53 88 81 72
71 78 87 96 56 40 48 35 35 49 36 71 83 94 98 97 97 93 96 97 98 96 95 96 95 90 62 53 46 42 35 28 16 9 5 5 3 2 2 2 21 42 82 58 52
52 63 89 88 80 45 50 26 32 49 53 76 87 94 98 97 97 96 97 96 97 96 93 94 97 96 71 66 53 45 37 27 15 8 5 5 3 3 2 2 20 30 66 46 55
97 99 95 96 83 72 44 38 40 78 86 86 87 98 99 97 97 98 97 96 97 96 93 96 99 96 90 77 67 49 38 25 14 8 6 4 3 3 2 2 17 35 48 41 59
82 97 84 100 82 77 51 78 49 96 85 93 95 87 96 99 97 96 96 97 97 97 96 100 97 98 96 96 81 52 37 23 13 8 6 4 4 3 2 2 6 30 28 33 68
99 85 87 100 96 81 92 100 55 80 83 97 92 83 92 96 99 98 98 96 97 97 97 89 100 96 99 96 76 50 36 19 12 9 6 5 4 3 2 2 5 26 28 41 88
96 89 70 87 99 95 80 88 66 99 92 94 100 89 97 98 97 98 97 98 97 97 98 96 97 98 100 94 75 50 32 20 12 10 7 5 4 3 2 2 2 25 37 51 80
53 77 84 100 97 97 100 90 58 91 90 96 99 89 95 98 96 98 97 97 97 97 97 97 97 100 98 95 71 48 30 18 13 10 7 5 5 4 2 2 2 20 35 45 76
4 43 83 100 92 99 90 95 78 92 96 99 98 94 98 99 94 98 97 97 95 97 97 97 100 100 98 93 65 50 27 18 13 11 7 6 5 4 3 2 2 8 29 35 71
3 8 82 88 95 99 100 76 92 98 100 100 92 94 100 100 91 95 98 98 97 97 97 97 100 99 96 87 74 49 26 18 14 11 7 6 6 4 3 2 2 3 24 33 44
5 45 53 65 92 99 97 85 90 91 100 98 90 100 100 97 88 92 98 98 99 98 97 97 97 97 96 89 72 44 27 20 16 12 8 6 6 5 3 2 2 3 21 35 36
5 17 98 100 90 100 100 91 98 82 97 99 98 100 99 93 95 94 98 98 98 98 98 96 96 96 96 94 74 40 28 22 17 12 9 6 6 5 4 2 2 2 17 38 38
12 25 73 97 100 100 97 87 97 100 97 100 100 100 98 100 98 99 95 93 96 98 98 98 97 97 98 96 74 37 31 24 18 14 10 8 7 7 5 2 2 2 12 32 45
3 15 38 96 100 99 73 80 100 99 100 99 99 100 98 98 100 100 97 97 98 97 98 97 98 99 98 95 64 39 34 25 20 15 11 9 10 8 6 3 2 2 5 23 48
5 15 71 85 100 100 78 98 100 100 98 95 100 100 99 97 97 100 98 98 97 98 98 99 98 96 97 94 57 44 37 28 22 17 12 10 11 10 6 4 2 2 2 16 38
Wind_Speed
32 32 32 34 32 32 36 39 42 44 45 39 36 33 34 36 32 30 30 26 25 23 23 25 26 25 25 24 25 26 25 27 29 31 34 39 43 47 53 59 63 70 75 80 83
37 37 36 34 34 31 33 35 38 38 41 40 40 34 32 33 35 32 30 29 27 24 27 26 27 25 25 25 25 26 25 27 29 31 37 41 45 51 57 62 67 75 80 81 72
39 39 39 35 35 34 35 36 38 39 40 42 43 36 32 31 33 33 32 30 28 29 29 28 28 26 25 24 26 26 26 28 30 32 38 43 49 54 60 66 72 78 78 68 48
40 40 39 37 36 36 37 37 38 37 38 37 37 38 31 29 34 32 32 33 31 30 33 30 29 27 25 25 25 26 27 29 30 34 40 45 51 57 63 70 77 80 74 55 44
40 42 39 40 39 37 38 36 36 38 38 34 36 37 34 31 30 31 32 35 35 35 33 29 28 26 25 24 25 26 27 29 31 35 41 47 52 58 65 71 79 76 58 42 44
44 41 43 40 39 38 38 39 39 38 37 39 35 34 35 33 33 34 33 34 33 37 32 29 27 24 24 25 25 26 29 30 32 37 42 48 54 59 67 74 77 63 41 40 46
44 42 41 40 39 39 39 41 40 41 38 36 37 34 36 37 35 37 36 35 45 37 30 27 26 23 23 25 25 25 29 31 33 39 44 48 56 62 69 74 72 50 37 39 39
44 41 42 40 38 39 40 39 40 40 40 37 36 33 35 36 40 46 49 48 36 30 28 26 25 23 23 24 24 27 28 31 34 39 44 50 56 63 70 74 63 41 38 40 41
43 41 40 39 39 39 39 39 38 39 40 39 37 34 36 37 37 36 39 36 31 30 30 26 23 23 23 23 24 26 30 33 36 40 45 51 58 63 70 76 54 35 40 41 37
40 37 38 38 38 38 38 38 39 39 40 38 35 34 33 31 33 32 36 35 33 28 29 24 21 21 22 22 24 26 29 32 36 40 46 51 59 64 70 75 48 34 41 38 38
37 36 35 34 35 35 35 37 38 37 33 33 32 30 33 28 27 34 32 34 28 29 26 18 18 19 20 22 24 27 28 31 35 39 45 51 59 64 69 69 42 34 39 41 45
38 34 33 34 32 33 36 39 38 36 31 30 28 29 30 27 24 26 35 34 27 29 18 15 16 18 20 22 24 25 27 31 35 39 45 51 58 64 67 64 36 38 37 39 45
38 38 36 31 31 34 35 39 35 33 30 24 27 27 26 25 18 21 25 25 26 27 16 15 16 18 20 23 24 24 27 30 34 39 44 50 57 63 64 60 32 33 41 46 43
38 34 37 35 31 34 35 36 33 30 28 23 21 21 18 18 18 18 20 23 24 21 17 18 17 18 20 23 23 24 26 30 33 37 43 50 56 62 61 51 30 29 35 39 44
36 44 33 33 33 32 34 32 32 27 27 19 20 21 19 17 14 14 11 14 22 19 20 19 19 19 21 22 22 23 25 28 31 37 42 50 56 62 62 49 24 27 32 36 43
37 32 26 34 36 33 32 31 28 23 23 21 17 17 15 9 9 9 12 12 14 18 21 20 20 21 21 21 21 22 25 27 30 35 42 49 55 62 62 58 22 25 26 28 36
30 29 29 37 37 33 29 28 27 19 21 18 18 19 18 20 21 22 18 13 12 13 16 20 22 23 24 21 18 21 24 27 30 36 41 48 55 61 64 55 27 22 22 25 28
36 37 39 39 40 29 29 27 29 22 21 21 19 20 20 21 21 18 19 21 19 16 15 18 20 23 21 17 16 19 21 24 29 34 39 47 54 58 63 57 26 19 18 24 27
49 50 46 43 37 33 30 33 29 24 24 22 17 15 18 17 20 20 20 21 22 20 19 18 18 18 17 14 14 17 19 22 26 32 38 45 52 58 60 55 32 16 17 18 20
50 50 51 49 40 26 33 35 29 26 24 21 20 22 23 21 22 18 19 20 21 23 19 18 15 14 14 12 13 16 19 23 26 32 38 44 50 56 58 53 35 11 14 13 16
44 45 47 42 39 30 33 27 23 25 21 21 21 26 24 22 20 19 20 19 20 20 19 15 14 13 14 12 12 14 17 20 24 29 37 43 49 55 58 56 36 8 7 8 13
39 41 40 39 40 37 34 27 23 22 19 21 20 21 19 18 20 21 20 18 17 17 18 17 14 13 13 11 12 14 16 18 23 28 34 41 48 54 58 56 35 9 3 5 7
37 38 37 36 35 34 36 28 26 21 16 20 22 21 19 17 20 18 18 16 16 17 18 16 15 14 12 10 12 12 14 17 22 26 33 40 46 52 57 58 35 10 5 4 4
35 37 29 26 33 31 35 30 32 23 15 19 19 19 20 18 18 19 17 16 15 15 14 16 16 16 13 10 10 12 13 16 21 24 31 38 45 50 56 57 43 8 8 4 7
34 39 35 26 23 35 34 35 29 24 16 18 18 21 19 15 15 14 14 14 14 15 16 17 17 14 11 10 9 10 13 16 20 24 29 35 43 49 54 55 46 18 9 8 10
33 35 39 27 29 30 28 32 29 29 25 22 22 19 17 17 17 18 16 12 12 12 14 14 14 12 12 10 7 10 13 15 19 22 27 33 41 47 52 55 45 24 8 12 8
31 34 30 32 28 29 33 34 18 25 21 23 18 18 16 17 18 16 13 11 11 11 11 12 11 11 11 10 7 9 12 14 17 21 24 31 38 44 50 53 48 28 1 16 12
Wind_Direction
309 309 310 309 302 295 289 285 286 289 291 290 291 290 290 289 287 284 285 287 290 292 290 283 276 274 273 278 280 283 287 289 294 300 303 308 312 313 314 315 316 315 313 311 307
310 309 311 309 306 301 295 290 286 288 290 291 290 287 286 285 286 284 283 284 285 290 294 284 274 270 270 273 279 285 286 290 297 302 308 312 314 315 317 319 318 318 316 312 302
309 307 309 311 312 309 302 298 294 292 286 286 288 280 280 278 281 281 282 280 281 291 299 286 278 272 269 272 280 283 286 293 300 307 310 314 317 319 321 322 320 319 318 309 290
308 308 309 308 306 304 305 303 298 298 292 291 288 280 274 270 275 274 277 278 279 291 296 282 276 270 267 273 282 285 288 296 303 310 314 317 319 321 324 324 323 323 320 307 295
305 306 304 302 305 304 303 304 301 298 293 292 292 278 271 268 268 269 273 275 278 291 292 278 273 267 269 277 285 286 292 297 307 312 316 318 321 325 326 325 328 326 317 306 305
304 303 303 302 302 302 303 302 302 299 296 287 284 284 268 264 266 264 264 272 276 285 282 277 271 265 272 281 286 290 294 302 309 316 318 321 323 328 328 330 331 325 309 311 311
300 299 299 298 297 299 300 301 302 305 303 295 287 279 275 268 263 264 261 264 287 282 278 275 269 267 274 285 286 291 300 306 313 316 319 323 326 331 332 333 332 323 315 316 312
295 297 297 296 294 293 296 299 304 305 303 296 285 278 275 277 280 278 272 273 283 277 276 268 268 269 278 286 290 294 301 306 314 317 320 327 330 332 334 337 334 320 320 320 322
294 294 292 291 293 294 297 300 303 304 305 297 281 274 275 279 280 284 278 282 281 277 272 261 271 270 280 281 287 298 303 309 315 318 325 331 332 333 337 340 333 321 320 325 327
289 286 287 289 290 293 297 300 301 304 307 300 287 271 269 270 276 278 276 281 279 271 268 259 267 272 280 284 291 300 304 309 314 324 329 331 333 336 340 342 333 325 321 330 332
286 287 287 286 289 291 295 300 302 304 307 301 293 277 266 265 270 264 266 275 272 271 258 259 264 273 278 287 293 299 303 310 317 327 330 333 335 339 343 343 334 321 330 341 333
285 285 288 289 289 293 293 299 301 302 307 301 293 281 270 270 271 274 266 264 261 262 243 253 271 274 282 288 291 299 306 314 322 327 333 335 339 343 346 345 333 334 341 336 332
284 288 276 287 288 289 294 299 300 301 308 303 288 284 282 272 274 274 264 247 257 248 234 257 267 273 281 288 297 304 311 320 323 328 332 336 343 346 348 346 334 341 331 328 333
285 274 280 286 285 286 289 295 298 298 306 306 296 296 293 279 270 265 262 248 250 240 236 256 264 274 282 290 299 305 311 319 325 330 333 339 345 348 352 346 328 338 322 333 330
270 278 274 279 275 283 284 292 295 299 306 309 309 302 300 301 285 287 275 263 249 237 245 256 266 272 280 287 298 305 312 320 326 330 336 341 346 349 355 351 318 321 330 332 329
279 261 278 276 278 278 279 288 288 295 304 308 306 318 299 276 288 295 288 284 281 257 252 261 273 271 275 285 297 307 314 320 328 332 340 343 347 351 356 353 332 336 328 332 339
263 270 267 274 272 273 274 284 277 281 298 302 289 304 283 289 293 294 278 270 270 273 276 271 271 274 276 278 297 308 318 325 329 338 340 344 351 353 355 354 344 337 324 336 346
250 253 268 274 271 268 262 273 268 276 287 302 288 297 297 284 287 289 280 270 261 265 271 263 263 274 280 279 297 308 319 327 331 336 339 346 354 356 357 355 344 341 339 348 350
249 249 256 263 265 259 259 258 265 266 281 297 289 293 303 297 298 294 287 274 263 260 263 261 262 270 279 276 295 309 319 325 331 334 341 347 355 357 360 354 352 350 357 358 343
249 248 254 258 264 249 261 254 262 264 276 287 282 289 287 295 307 296 286 283 272 258 261 262 264 267 262 276 294 311 320 328 333 340 341 348 355 356 1 355 350 343 346 356 343
256 249 256 253 253 256 252 252 248 257 269 279 276 290 289 286 301 296 300 281 281 266 260 258 259 253 261 272 291 310 319 326 333 339 344 349 356 355 359 358 352 325 328 335 338
252 252 257 254 266 253 246 253 245 250 268 275 279 284 294 288 297 300 295 285 281 266 262 260 249 251 257 268 289 308 320 328 331 341 344 351 358 356 357 1 351 329 261 301 297
252 249 256 260 267 248 239 236 235 242 259 279 275 281 287 288 300 296 295 282 278 276 268 249 244 245 246 267 287 303 321 326 330 341 346 353 357 358 359 2 2 338 185 253 255
254 242 248 260 258 257 254 235 232 233 253 284 279 276 285 277 289 296 290 282 276 270 258 254 254 246 247 256 280 304 318 325 329 340 349 355 357 358 1 3 3 1 193 192 183
250 241 238 262 253 255 237 227 228 228 246 281 279 282 279 268 277 291 305 290 285 273 264 263 258 256 254 252 270 298 314 320 333 342 350 353 359 358 1 5 3 13 190 198 175
253 243 243 255 252 243 224 227 229 232 249 259 282 273 272 266 272 278 294 291 292 283 276 265 255 258 257 251 269 297 311 319 334 343 348 351 357 359 1 7 6 5 170 201 173
247 239 240 246 245 248 215 216 219 237 249 254 268 266 265 268 262 269 280 285 287 288 284 269 247 246 245 242 262 295 308 319 331 341 349 351 356 0 3 8 10 10 74 191 205